Station APXF1 - East Bay, Apalachicola Reserve, FL Image indicating link to RSS feed of recent meteorological observations for station APXF1


Conditions at APXF1 as of
(4:00 pm EDT)
2000 GMT on 05/24/2024:
     

Click on the graph icon in the table below to see a time series plot of the last five days of that observation.

5-day plot - Wind Direction Wind Direction (WDIR):WSW ( 240 deg true )
5-day plot - Wind Speed Wind Speed (WSPD): 8.0 kts
5-day plot - Atmospheric Pressure Atmospheric Pressure (PRES):30.00 in
5-day plot - Pressure Tendency Pressure Tendency (PTDY):+0.00 in ( Steady )
5-day plot - Air Temperature Air Temperature (ATMP): 82.2 °F
5-day plot - Dew Point Dew Point (DEWP): 72.9 °F
5-day plot - Heat Index Heat Index (HEAT): 87.6 °F
5-day plot -  Wind Speed, Wind Gust and Atmospheric Pressure Combined plot of Wind Speed, Gust, and Air Pressure
Previous observations
TIME
(EDT)
5-day plot - Wind Direction
WDIR
 
5-day plot - Wind Speed
WSPD
kts
5-day plot - Wind Gust
GST
kts
5-day plot - Wave Height
WVHT
ft
5-day plot - Dominant Wave Period
DPD
sec
5-day plot - Average Wave Period
APD
sec
5-day plot - Mean Wave Direction
MWD
 
5-day plot - Atmospheric Pressure
PRES
in
5-day plot - Pressure Tendency
PTDY
in
5-day plot - Air Temperature
ATMP
°F
5-day plot - Water Temperature
WTMP
°F
5-day plot - Dew Point
DEWP
°F
5-day plot - Salinity
SAL
psu
5-day plot - Visibility
VIS
nmi
5-day plot - Tide (above MLLW)
TIDE
ft
2024-05-24 03:45 pm SW 7.0-----30.00- 82.4- 73.6---
2024-05-24 03:30 pm SW 6.0-----29.97- 82.4- 73.9---
2024-05-24 03:15 pm SW 6.0-----29.97- 82.6- 74.1---
2024-05-24 03:00 pmWSW 7.0-----30.00+0.00 82.0- 72.7---
2024-05-24 02:45 pmWSW 7.0-----30.00- 82.2- 72.9---
2024-05-24 02:30 pm SW 7.0-----30.00- 82.2- 72.9---
2024-05-24 02:15 pmWSW 7.0-----30.00- 82.4- 73.0---
2024-05-24 02:00 pmWSW 7.0-----30.00+0.06 81.1- 72.7---
2024-05-24 01:45 pmWSW 8.0-----30.00- 81.0- 72.9---
2024-05-24 01:30 pmWSW 6.0-----30.00- 81.3- 73.2---
2024-05-24 01:15 pmWSW 6.0-----30.00- 81.9- 73.0---
2024-05-24 01:00 pmWSW 6.0-----30.00+0.03 80.6- 73.2---
2024-05-24 12:45 pmWSW 7.0-----30.00- 80.6- 73.6---
2024-05-24 12:30 pmWSW 7.0-----30.00- 80.8- 73.8---
2024-05-24 12:15 pmWSW 7.0-----30.00- 80.8- 73.0---
2024-05-24 12:00 pm W 7.0-----30.00-0.03 80.2- 73.8---
2024-05-24 11:45 amWSW 7.0-----30.00- 80.2- 73.8---
2024-05-24 11:30 amWSW 6.0-----30.03- 80.2- 73.8---
2024-05-24 11:15 amWSW 6.0-----30.00- 80.4- 73.9---
2024-05-24 11:00 am S 6.0-----29.94-0.06 80.2- 74.1---
2024-05-24 10:45 am S 6.0-----29.97- 80.6- 73.6---
2024-05-24 10:30 am SW 5.1-----29.97- 81.1- 73.4---
2024-05-24 10:15 amWSW 7.0-----30.00- 80.4- 73.4---
2024-05-24 10:00 amESE 6.0-----29.97+0.00 76.3- 74.5---
2024-05-24 09:45 amSSE 6.0-----29.94- 77.2- 74.5---
2024-05-24 09:30 amSSE 8.0-----29.94- 78.6- 74.1---
2024-05-24 09:15 am SE 8.9-----29.91- 80.1- 74.3---
2024-05-24 09:00 am E 2.9-----30.03+0.06 73.4- 72.1---
2024-05-24 08:45 am SE 5.1-----30.00- 73.6- 72.3---
2024-05-24 08:30 am E 5.1-----29.97- 73.9- 72.7---
2024-05-24 08:15 amENE 4.1-----30.00- 75.0- 73.6---
2024-05-24 08:00 amNNE 4.1-----30.00+0.03 73.6- 72.3---
2024-05-24 07:45 am E 1.9-----30.00- 73.0- 71.8---
2024-05-24 07:30 amESE 1.9-----30.03- 72.7- 71.4---
2024-05-24 07:15 am E 1.9-----30.03- 72.7- 71.4---
2024-05-24 07:00 amESE 1.9-----29.97-0.03 70.5- 69.4---
2024-05-24 06:45 am SE 1.9-----29.97- 70.0- 68.9---
2024-05-24 06:30 am NE 1.9-----30.00- 71.6- 70.7---
2024-05-24 06:15 amNNE 4.1-----30.00- 73.6- 72.3---
2024-05-24 06:00 amESE 1.9-----29.97-0.03 72.1- 70.3---
2024-05-24 05:45 amSSE 1.0-----29.97- 72.0- 70.5---
2024-05-24 05:30 amESE 1.0-----29.97- 70.5- 69.1---
2024-05-24 05:15 am SE 1.9-----29.97- 70.3- 69.3---
2024-05-24 05:00 amSSE 1.9-----29.97-0.03 73.8- 70.7---
2024-05-24 04:45 amSSE 1.0-----29.97- 72.5- 70.2---
2024-05-24 04:30 am SE 1.9-----29.97- 71.4- 69.3---
2024-05-24 04:15 am- 0.0-----29.97- 72.3- 70.5---
2024-05-24 04:00 am NW 7.0-----30.00+0.00 77.0- 73.2---
2024-05-24 03:45 am NW 5.1-----30.00- 76.8- 73.0---
2024-05-24 03:30 am NW 4.1-----29.97- 76.5- 73.0---
2024-05-24 03:15 amWNW 2.9-----29.97- 76.3- 72.9---
2024-05-24 03:00 amWNW 6.0-----30.00+0.00 78.4- 73.4---
2024-05-24 02:45 amWNW 6.0-----30.00- 77.7- 73.0---
2024-05-24 02:30 amWNW 6.0-----30.00- 77.5- 73.0---
2024-05-24 02:15 amWNW 6.0-----30.00- 77.2- 73.0---
2024-05-24 02:00 am SW 2.9-----30.00+0.00 77.9- 72.1---
2024-05-24 01:45 amWSW 5.1-----30.00- 78.8- 72.7---
2024-05-24 01:30 amWSW 7.0-----30.00- 79.2- 73.0---
2024-05-24 01:15 amWSW 6.0-----30.00- 79.0- 72.9---
2024-05-24 01:00 amSSW 1.9-----30.00+0.00 77.2- 72.9---
2024-05-24 12:45 amSSW 1.9-----30.00- 77.2- 72.5---
2024-05-24 12:30 amSSW 2.9-----30.00- 77.2- 72.1---
2024-05-24 12:15 amSSW 4.1-----30.00- 77.5- 72.1---
2024-05-24 12:00 amSSW 1.9-----30.00+0.00 77.5- 72.9---
2024-05-23 11:45 pmSSW 1.9-----30.00- 77.5- 73.0---
2024-05-23 11:30 pmSSW 1.9-----30.00- 77.4- 73.0---
2024-05-23 11:15 pmSSW 1.9-----30.00- 77.2- 72.9---
2024-05-23 11:00 pmSSW 1.9-----30.00+0.00 78.1- 73.4---
2024-05-23 10:45 pmSSW 1.9-----30.00- 78.1- 73.4---
2024-05-23 10:30 pm S 1.0-----30.00- 77.9- 72.9---
2024-05-23 10:15 pm S 1.0-----30.00- 77.7- 73.0---
2024-05-23 10:00 pm- 0.0-----30.00+0.00 78.6- 73.6---
2024-05-23 09:45 pmSSW 1.0-----30.00- 78.3- 73.6---
2024-05-23 09:30 pm S 1.0-----30.00- 78.1- 73.4---
2024-05-23 09:15 pm S 1.9-----29.97- 77.9- 73.2---
2024-05-23 09:00 pm S 1.9-----30.00-0.03 80.4- 73.0---
2024-05-23 08:45 pm S 1.9-----30.00- 79.9- 73.4---
2024-05-23 08:30 pm S 1.9-----30.00- 79.3- 73.6---
2024-05-23 08:15 pm S 1.0-----30.00- 78.8- 73.4---
2024-05-23 08:00 pm SE 4.1-----30.00-0.03 81.5- 73.4---
2024-05-23 07:45 pmSSE 4.1-----30.00- 81.1- 73.0---
2024-05-23 07:30 pmSSE 2.9-----30.00- 81.1- 73.4---
2024-05-23 07:15 pmSSE 2.9-----30.00- 80.8- 73.4---
2024-05-23 07:00 pm SE 5.1-----30.00-0.03 82.2- 73.4---
2024-05-23 06:45 pmSSE 4.1-----30.00- 82.2- 72.9---
2024-05-23 06:30 pmSSE 4.1-----30.00- 82.0- 72.7---
2024-05-23 06:15 pm S 2.9-----30.00- 81.9- 72.7---
2024-05-23 06:00 pm S 5.1-----30.03+0.00 82.4- 73.0---
2024-05-23 05:45 pmSSE 5.1-----30.00- 82.6- 73.2---
2024-05-23 05:30 pm S 4.1-----30.00- 82.4- 72.7---
2024-05-23 05:15 pmSSE 5.1-----30.00- 82.2- 72.9---
2024-05-23 05:00 pm S 5.1-----30.03+0.00 82.2- 74.1---
2024-05-23 04:45 pmSSE 5.1-----30.03- 82.6- 74.1---
2024-05-23 04:30 pmSSE 5.1-----30.03- 82.2- 73.8---
2024-05-23 04:15 pmSSE 5.1-----30.03- 82.8- 73.4---
2024-05-23 04:00 pmSSE 5.1-----30.03+0.00 81.9- 74.5---